Regional Weather Roundup
Issued by NWS

Home | Current Version | Previous Version | Text Only | Print | Product List | Glossary Off
Versions: 1 2 3 4 5 6 7 8 9 10 11 12 13 14 15 16 17 18 19 20 21 22 23 24 25 26 27 28 29 30 31 32 33 34 35 36 37 38 39 40 41 42 43 44 45 46 47 48 49 50

000
ASUS43 KDTX 312310
RWRMI
MICHIGAN HOURLY REGIONAL WEATHER ROUNDUP
NATIONAL WEATHER SERVICE DETROIT/PONTIAC MI
700 PM EDT SUN AUG 31 2014

NOTE: "FAIR" INDICATES FEW OR NO CLOUDS BELOW 12,000 FEET WITH NO
SIGNIFICANT WEATHER AND/OR OBSTRUCTION TO VISIBILITY.

MIZ047>049-052>055-059>063-066>070-074>076-081>083-010000-
SOUTHEAST LOWER MICHIGAN

CITY           SKY/WX    TMP DP  RH WIND       PRES   REMARKS
ADRIAN         SUNNY     82  66  58 SW10      29.94S
ALMA           SUNNY     80  68  66 CALM      29.92S
BAD AXE        SUNNY     78  67  68 NW5       29.94S
DETROIT CITY   CLOUDY    81  67  62 SW9       29.93S
DETROIT        MOSUNNY   78  68  71 SE9       29.94S
FLINT          SUNNY     83  65  54 SW5       29.93S
GROSSE ILE     RAIN      73  70  88 S6        29.93F
HILLSDALE      PTSUNNY   80  68  67 W3        29.95F
HOWELL         CLOUDY    80  66  63 CALM      29.94S

CITY           SKY/WX    TMP DP  RH WIND       PRES   REMARKS
JACKSON        SUNNY     81  67  62 SW6       29.94S
LAMBERTVILLE   SUNNY     82  68  61 SW3       29.94S
LANSING        LGT RAIN  70  65  84 S10G26    29.95R
LAPEER         NOT AVBL
MASON          CLOUDY    78  69  75 CALM      29.94S
MONROE         PTSUNNY   79  70  73 E8        29.92S
MT. CLEMENS    MOSUNNY   78  68  72 SE9       29.92S
PONTIAC        MOSUNNY   81  64  56 W7        29.94R
PORT HOPE        N/A     71  65  81 SE6       29.92S
PORT HURON     MOSUNNY   81  70  69 S6        29.93S
TRI CITIES     MOSUNNY   81  67  62 SW6       29.92S
YPSILANTI      MOSUNNY   85  67  54 S7        29.93F
$$
MIZ043>046-050>051-056>058-064>065-071>073-077>080-010000-
SOUTHWEST LOWER MICHIGAN

CITY           SKY/WX    TMP DP  RH WIND       PRES   REMARKS
BATTLE CREEK   MOSUNNY   80  66  62 NW5       29.94S
BENTON HARBOR  SUNNY     80  66  62 NW5       29.91S
BIG RAPIDS     SUNNY     77  66  68 W6        29.92S
COLDWATER      CLOUDY    79  70  73 SW7       29.94F
HOLLAND        SUNNY     79  68  69 SW5       29.93S
GRAND RAPIDS   MOSUNNY   81  66  60 W7        29.93S
KALAMAZOO      MOSUNNY   81  67  62 NW6       29.93S
MARSHALL       CLOUDY    77  68  73 NW5       29.93S
MUSKEGON       MOSUNNY   77  65  66 S6        29.92F
$$
MIZ016>042-010000-
NORTHERN LOWER MICHIGAN

CITY           SKY/WX    TMP DP  RH WIND       PRES   REMARKS
ALPENA         SUNNY     72  62  71 VRB6      29.93S
BEAVER ISLAND  MOSUNNY   68  61  78 W8        29.92S
BELLAIRE       SUNNY     72  61  67 S3        29.91F
CADILLAC       SUNNY     76  65  68 SW5       29.93S
CHARLEVOIX     SUNNY     68  63  83 N3        29.94F
FRANKFORT      PTCLDY    73  62  68 CALM      29.91S
GAYLORD        MOSUNNY   70  60  70 W8        29.94F
GRAYLING       SUNNY     74  63  67 W3        29.94F
HARBOR SPRINGS MOSUNNY   68  61  78 CALM      29.91F
HOUGHTON LAKE  SUNNY     76  64  66 N5        29.94S
MANISTEE       SUNNY     73  63  68 W3        29.92S
OSCODA         SUNNY     73  63  69 N7        29.92S
PELLSTON       PTSUNNY   70  61  73 W3        29.92F
TRAVERSE CITY  MOSUNNY   72  61  68 NE5       29.90S
$$
MIZ007>008-015-010000-
EASTERN UPPER MICHIGAN

CITY           SKY/WX    TMP DP  RH WIND       PRES   REMARKS
KINROSS        MOSUNNY   68  63  83 S8        29.90F
MACKINAC ISLAN SUNNY     64  61  90 W5        29.91F
NEWBERRY       SUNNY     66  60  79 S10G18    29.90S
S. S. MARIE    CLOUDY    70  59  68 SE3       29.89F
$$
MIZ004>006-011>014-085-010000-
CENTRAL UPPER MICHIGAN

CITY           SKY/WX    TMP DP  RH WIND       PRES   REMARKS
MANISTIQUE     SUNNY     65  61  85 S8        29.90S
ESCANABA       CLOUDY    64  59  82 SE8       29.89F
MENOMINEE      CLOUDY    66  61  82 SE10      29.87F
SAWYER-GWINN   PTSUNNY   64  59  82 S15       29.87F
$$
MIZ001>003-009>011-084-010000-
WESTERN UPPER MICHIGAN

CITY           SKY/WX    TMP DP  RH WIND       PRES   REMARKS
IRON MOUNTAIN  CLOUDY    66  60  81 SE12      29.85F
HOUGHTON       SUNNY     64  58  80 E9        29.77F
COPPER HARBOR    N/A     64  56  75 S9G18     29.79F
$$

ABBREVIATIONS USED IN REMARKS
   TC - TEMPERATURE IN CELSIUS
  WCI - WIND CHILL INDEX
   HX - HEAT INDEX
  VSB - VISIBILITY




USA.gov is the U.S. government's official web portal to all federal, state and local government web resources and services.